�������l�o���
Date,Time,MP-1(��Sv/h),MP-2(��Sv/h),MP-3(��Sv/h),MP-4(��Sv/h),MP-5(��Sv/h),MP-6(��Sv/h),MP-7(��Sv/h),MP-8(��Sv/h),����,����(m/s),���J
2013/09/11,00:00,2.8,5.0,5.8,5.1,5.4,2.8,3.2,3.2,��쐼,2.2,��
2013/09/11,00:10,2.8,5.0,5.8,5.1,5.4,2.8,3.2,3.2,��쐼,1.9,��
2013/09/11,00:20,2.8,5.0,5.8,5.1,5.4,2.8,3.2,3.2,��쐼,1.9,��
2013/09/11,00:30,2.8,5.0,5.8,5.1,5.4,2.8,3.2,3.2,��쐼,2.0,��
2013/09/11,00:40,2.8,5.0,5.8,5.1,5.4,2.9,3.2,3.2,��쐼,1.9,��
2013/09/11,00:50,2.8,5.0,5.8,5.1,5.4,2.8,3.2,3.2,��쐼,2.3,��
2013/09/11,01:00,2.8,5.0,5.8,5.1,5.4,2.8,3.2,3.2,��쐼,1.7,��
2013/09/11,01:10,2.8,5.0,5.8,5.1,5.4,2.8,3.2,3.2,�쐼,1.6,��
2013/09/11,01:20,2.8,5.0,5.8,5.1,5.4,2.8,3.2,3.2,��쐼,1.5,��
2013/09/11,01:30,2.8,5.0,5.8,5.1,5.4,2.8,3.2,3.2,��쐼,1.7,��
2013/09/11,01:40,2.8,5.0,5.8,5.1,5.4,2.8,3.2,3.2,��쐼,1.5,��
2013/09/11,01:50,2.8,5.0,5.8,5.1,5.4,2.8,3.2,3.2,��쐼,1.7,��
2013/09/11,02:00,2.8,5.0,5.8,5.1,5.4,2.8,3.2,3.2,�쐼,1.3,��
2013/09/11,02:10,2.8,5.0,5.8,5.1,5.4,2.9,3.2,3.2,�쐼,1.9,��
2013/09/11,02:20,2.8,5.0,5.8,5.1,5.4,2.8,3.2,3.2,�쐼,1.7,��
2013/09/11,02:30,2.8,5.0,5.8,5.1,5.4,2.8,3.2,3.2,�쐼,1.9,��
2013/09/11,02:40,2.8,5.0,5.8,5.1,5.4,2.8,3.2,3.2,��쐼,1.9,��
2013/09/11,02:50,2.8,5.0,5.8,5.1,5.4,2.8,3.2,3.2,��쐼,1.8,��
2013/09/11,03:00,2.8,5.0,5.8,5.1,5.4,2.8,3.2,3.2,��쐼,1.7,��
2013/09/11,03:10,2.8,5.0,5.8,5.1,5.4,2.8,3.2,3.2,��쐼,1.6,��
2013/09/11,03:20,2.8,5.0,5.8,5.1,5.4,2.8,3.2,3.2,��쐼,1.9,��
2013/09/11,03:30,2.8,5.0,5.8,5.1,5.4,2.8,3.2,3.2,�쐼,2.0,��
2013/09/11,03:40,2.8,5.0,5.8,5.1,5.4,2.8,3.2,3.2,�쐼,2.1,��
2013/09/11,03:50,2.8,5.0,5.8,5.1,5.4,2.8,3.2,3.2,��쐼,1.9,��
2013/09/11,04:00,2.8,5.0,5.8,5.1,5.4,2.8,3.2,3.2,��쐼,1.6,��
2013/09/11,04:10,2.8,5.0,5.8,5.1,5.4,2.8,3.2,3.2,��쐼,1.2,��
2013/09/11,04:20,2.8,5.0,5.8,5.1,5.4,2.8,3.2,3.2,��,1.7,��
2013/09/11,04:30,2.8,5.0,5.8,5.1,5.4,2.8,3.2,3.2,��,1.4,��
2013/09/11,04:40,2.8,5.0,5.8,5.1,5.4,2.8,3.2,3.2,��,1.3,��
2013/09/11,04:50,2.8,5.0,5.8,5.1,5.4,2.8,3.2,3.2,��쐼,0.7,��
2013/09/11,05:00,2.8,5.0,5.8,5.1,5.4,2.8,3.2,3.2,��,0.7,��
2013/09/11,05:10,2.8,5.0,5.8,5.1,5.4,2.9,3.2,3.2,��쓌,1.0,��
2013/09/11,05:20,2.8,5.0,5.8,5.1,5.4,2.8,3.2,3.2,��,0.9,��
2013/09/11,05:30,2.8,5.0,5.7,5.1,5.4,2.8,3.1,3.2,��,1.4,��
2013/09/11,05:40,2.8,5.0,5.8,5.1,5.4,2.8,3.1,3.2,��,1.6,��
2013/09/11,05:50,2.8,5.0,5.8,5.1,5.4,2.8,3.1,3.2,��,1.6,��
2013/09/11,06:00,2.8,5.0,5.8,5.1,5.4,2.8,3.2,3.2,��,1.5,��
2013/09/11,06:10,2.8,5.0,5.8,5.1,5.4,2.8,3.2,3.2,��,0.8,��
2013/09/11,06:20,2.8,5.0,5.8,5.1,5.4,2.8,3.2,3.2,-,CALM,��
2013/09/11,06:30,2.8,5.0,5.8,5.1,5.4,2.8,3.2,3.2,-,CALM,��
2013/09/11,06:40,2.8,5.0,5.8,5.1,5.4,2.9,3.2,3.2,�k�k��,0.7,��
2013/09/11,06:50,2.8,5.0,5.8,5.1,5.4,2.9,3.2,3.2,�k�k��,0.6,��
2013/09/11,07:00,2.8,5.0,5.8,5.1,5.4,2.9,3.2,3.2,-,CALM,��
2013/09/11,07:10,2.8,5.0,5.8,5.1,5.4,2.9,3.2,3.2,-,CALM,��
2013/09/11,07:20,2.8,5.0,5.8,5.1,5.4,2.9,3.2,3.2,-,CALM,��
2013/09/11,07:30,2.8,5.0,5.8,5.1,5.4,2.9,3.2,3.2,-,CALM,��
2013/09/11,07:40,2.8,5.0,5.8,5.1,5.4,2.9,3.2,3.2,-,CALM,��
2013/09/11,07:50,2.8,5.0,5.8,5.1,5.4,2.9,3.2,3.2,�k�k��,1.3,��
2013/09/11,08:00,2.8,5.0,5.8,5.1,5.4,2.9,3.2,3.2,-,CALM,��
2013/09/11,08:10,2.8,5.0,5.8,5.1,5.4,2.9,3.2,3.2,�k��,0.6,��
2013/09/11,08:20,2.8,5.0,5.8,5.1,5.4,2.9,3.2,3.2,�k��,1.0,��
2013/09/11,08:30,2.8,5.0,5.8,5.1,5.4,2.9,3.2,3.2,�k��,0.9,��
2013/09/11,08:40,2.8,5.0,5.8,5.1,5.4,2.9,3.2,3.2,���k��,1.1,��
2013/09/11,08:50,2.8,5.0,5.8,5.1,5.5,2.9,3.2,3.2,���k��,1.8,��
2013/09/11,09:00,2.8,5.0,5.8,5.1,5.4,2.9,3.2,3.2,���쓌,1.9,��
2013/09/11,09:10,2.8,5.0,5.8,5.1,5.5,2.9,3.2,3.2,���쓌,1.8,��
2013/09/11,09:20,2.8,5.0,5.8,5.1,5.5,2.9,3.2,3.2,��,2.2,��
2013/09/11,09:30,2.8,5.0,5.8,5.1,5.5,2.9,3.2,3.2,���쓌,2.0,��
2013/09/11,09:40,2.8,5.0,5.8,5.1,5.5,2.9,3.2,3.2,���쓌,2.0,��
2013/09/11,09:50,-,5.0,5.8,5.1,5.5,2.9,3.2,3.2,���쓌,2.8,��
2013/09/11,10:00,-,5.0,5.8,5.1,5.5,2.9,3.2,3.2,��,2.8,��
2013/09/11,10:10,-,5.0,5.8,5.1,5.5,2.9,3.2,3.2,��,3.0,��
2013/09/11,10:20,-,5.0,5.8,5.1,5.5,2.9,3.2,3.2,���k��,3.2,��
2013/09/11,10:30,2.8,5.0,5.8,5.1,5.5,2.9,3.2,3.2,��,3.4,��
2013/09/11,10:40,2.8,5.0,5.8,5.1,5.5,2.9,3.2,3.2,��,2.9,��
2013/09/11,10:50,2.8,5.0,5.8,5.1,5.5,2.9,3.2,3.2,���쓌,3.9,��
2013/09/11,11:00,2.8,5.0,5.8,5.1,5.5,2.9,3.2,3.2,���쓌,2.8,��
2013/09/11,11:10,2.8,5.0,5.8,5.1,5.5,2.9,3.2,3.2,���쓌,3.3,��
2013/09/11,11:20,2.8,5.0,5.8,5.1,5.5,2.9,3.2,3.2,���쓌,2.4,��
2013/09/11,11:30,2.8,5.0,5.8,5.1,5.5,2.9,3.2,3.2,���쓌,3.1,��
2013/09/11,11:40,2.8,5.0,5.8,5.1,5.5,2.9,3.2,3.2,���쓌,3.0,��
2013/09/11,11:50,2.8,5.0,5.8,5.1,5.5,2.9,3.2,3.2,���쓌,2.8,��
2013/09/11,12:00,2.8,5.0,5.8,5.1,5.5,2.9,3.2,3.2,���쓌,3.6,��
2013/09/11,12:10,2.8,5.0,5.8,5.1,5.5,2.9,3.2,3.2,�쓌,3.2,��
2013/09/11,12:20,2.8,5.0,5.8,5.1,5.5,2.9,3.2,3.2,�쓌,3.6,��
2013/09/11,12:30,2.8,5.0,5.8,5.1,5.5,2.9,3.2,3.2,�쓌,3.7,��
2013/09/11,12:40,2.8,5.0,5.8,5.1,5.5,2.9,3.2,3.2,�쓌,3.5,��
2013/09/11,12:50,2.8,5.0,5.8,5.1,5.5,2.9,3.2,3.2,�쓌,3.4,��
2013/09/11,13:00,2.8,5.0,5.8,5.1,5.5,2.9,3.2,3.2,�쓌,3.7,��
2013/09/11,13:10,2.8,5.1,5.8,5.1,5.5,2.9,3.2,3.2,�쓌,4.2,��
2013/09/11,13:20,2.8,5.1,5.8,5.1,5.5,2.9,3.2,3.2,�쓌,3.2,��
2013/09/11,13:30,2.8,5.1,5.8,5.1,5.5,2.9,3.2,3.2,�쓌,4.4,��
2013/09/11,13:40,2.8,5.1,5.8,5.1,5.5,2.9,3.2,3.2,��쓌,3.8,��
2013/09/11,13:50,2.8,5.1,5.8,5.1,5.5,2.9,3.2,3.2,��쓌,4.6,��
2013/09/11,14:00,2.8,5.1,5.8,5.1,5.5,2.9,3.2,3.2,��쓌,5.4,��
2013/09/11,14:10,2.8,5.1,5.8,5.1,5.5,2.9,3.2,3.2,��쓌,4.9,��
2013/09/11,14:20,2.8,5.1,5.8,5.2,5.5,2.9,3.2,3.2,��쓌,4.8,��
2013/09/11,14:30,2.8,5.1,5.8,5.1,5.5,2.9,3.2,3.2,��쓌,4.3,��
2013/09/11,14:40,2.8,5.1,5.8,5.1,5.5,2.9,3.2,3.2,��쓌,4.4,��
2013/09/11,14:50,2.8,5.1,5.8,5.1,5.5,2.9,3.2,3.2,��,4.0,��
2013/09/11,15:00,2.8,5.1,5.8,5.2,5.5,2.9,3.2,3.2,��쓌,3.9,��
2013/09/11,15:10,2.8,5.1,5.8,5.1,5.5,2.9,3.2,3.2,��쓌,4.2,��
2013/09/11,15:20,-,5.1,5.8,5.1,5.5,2.9,3.2,3.2,��쓌,4.4,��
2013/09/11,15:30,-,5.1,5.8,5.1,5.5,2.9,3.2,3.2,��,3.3,��
2013/09/11,15:40,-,5.1,5.8,5.1,5.5,2.9,3.2,3.2,��,3.9,��
2013/09/11,15:50,-,5.1,5.8,5.1,5.5,2.9,3.2,3.2,��쓌,3.8,��
2013/09/11,16:00,-,5.1,5.8,5.1,5.5,2.9,3.2,3.2,��,3.0,��
2013/09/11,16:10,-,5.1,5.8,5.1,5.5,2.9,3.2,3.2,��쓌,3.9,��
2013/09/11,16:20,-,5.1,5.8,5.1,5.5,2.9,3.2,3.2,��쓌,4.4,��
2013/09/11,16:30,-,5.1,5.8,5.1,5.5,2.9,3.2,3.2,��쓌,3.9,��
2013/09/11,16:40,-,5.1,5.8,5.1,5.5,2.9,3.2,3.2,��,4.9,��
2013/09/11,16:50,-,5.1,5.8,5.1,5.5,2.9,3.2,3.2,��,4.3,��
2013/09/11,17:00,2.8,5.1,5.8,5.1,5.5,2.9,3.2,3.2,��,4.3,��
2013/09/11,17:10,2.8,5.1,5.8,5.1,5.5,2.9,3.2,3.2,��,3.5,��
2013/09/11,17:20,2.8,5.1,5.8,5.1,5.5,2.9,3.2,3.2,��,4.0,��
2013/09/11,17:30,2.8,5.1,5.8,5.1,5.5,2.9,3.2,3.2,��,4.3,��
2013/09/11,17:40,2.8,5.1,5.8,5.1,5.5,2.9,3.2,3.2,��,4.4,��
2013/09/11,17:50,2.8,5.1,5.8,5.1,5.5,2.9,3.2,3.2,��,4.2,��
2013/09/11,18:00,2.8,5.1,5.8,5.1,5.5,2.9,3.2,3.2,��,4.0,��
2013/09/11,18:10,2.8,5.1,5.8,5.1,5.5,2.9,3.2,3.2,��쐼,3.4,��
2013/09/11,18:20,2.8,5.1,5.8,5.1,5.5,2.9,3.2,3.2,��쐼,3.4,��
2013/09/11,18:30,2.8,5.1,5.8,5.1,5.5,2.9,3.2,3.2,��쐼,3.1,��
2013/09/11,18:40,2.8,5.1,5.8,5.1,5.5,2.9,3.2,3.2,��쐼,3.5,��
2013/09/11,18:50,2.8,5.0,5.8,5.1,5.5,2.9,3.2,3.2,��,2.8,��
2013/09/11,19:00,2.8,5.1,5.8,5.1,5.5,2.9,3.2,3.2,��,3.2,��
2013/09/11,19:10,2.8,5.1,5.8,5.1,5.5,2.9,3.2,3.2,��쐼,2.5,��
2013/09/11,19:20,2.8,5.0,5.8,5.1,5.5,2.9,3.2,3.2,��쐼,3.1,��
2013/09/11,19:30,2.8,5.0,5.8,5.1,5.5,2.9,3.2,3.2,��쐼,2.8,��
2013/09/11,19:40,2.8,5.1,5.8,5.1,5.5,2.9,3.2,3.2,��,2.7,��
2013/09/11,19:50,2.8,5.1,5.8,5.1,5.5,2.9,3.2,3.2,��,3.3,��
2013/09/11,20:00,2.8,5.1,5.8,5.1,5.5,2.9,3.2,3.2,��,3.3,��
2013/09/11,20:10,2.8,5.1,5.8,5.1,5.5,2.9,3.2,3.2,��,3.4,��
2013/09/11,20:20,2.8,5.0,5.8,5.1,5.5,2.9,3.2,3.2,��,3.8,��
2013/09/11,20:30,2.8,5.0,5.8,5.1,5.5,2.9,3.2,3.2,��,3.5,��
2013/09/11,20:40,2.8,5.0,5.8,5.1,5.5,2.9,3.2,3.2,��,3.9,��
2013/09/11,20:50,2.8,5.0,5.8,5.1,5.5,2.9,3.2,3.2,��,3.9,��
2013/09/11,21:00,2.8,5.0,5.8,5.1,5.5,2.9,3.2,3.2,��,4.3,��
2013/09/11,21:10,2.8,5.1,5.8,5.1,5.5,2.9,3.2,3.2,��쐼,3.6,��
2013/09/11,21:20,2.8,5.0,5.8,5.1,5.5,2.9,3.2,3.2,��쐼,3.3,��
2013/09/11,21:30,2.8,5.0,5.8,5.1,5.5,2.9,3.2,3.2,��쐼,3.4,��
2013/09/11,21:40,2.8,5.0,5.8,5.1,5.5,2.9,3.2,3.2,��쐼,3.5,��
2013/09/11,21:50,2.8,5.0,5.8,5.1,5.5,2.9,3.2,3.2,��,3.1,��
2013/09/11,22:00,2.8,5.0,5.8,5.1,5.5,2.9,3.2,3.2,��쐼,3.0,��
2013/09/11,22:10,2.8,5.0,5.8,5.1,5.5,2.9,3.2,3.2,��쐼,2.7,��
2013/09/11,22:20,2.8,5.0,5.8,5.1,5.5,2.9,3.2,3.2,��쐼,2.2,��
2013/09/11,22:30,2.8,5.0,5.8,5.1,5.5,2.9,3.2,3.2,��쐼,2.3,��
2013/09/11,22:40,2.8,5.0,5.8,5.1,5.5,2.9,3.2,3.2,��쐼,2.3,��
2013/09/11,22:50,2.8,5.0,5.8,5.1,5.5,2.9,3.2,3.2,��쐼,2.6,��
2013/09/11,23:00,2.8,5.0,5.8,5.1,5.5,2.9,3.2,3.2,��,3.1,��
2013/09/11,23:10,2.8,5.0,5.8,5.1,5.5,2.9,3.2,3.2,��,3.1,��
2013/09/11,23:20,2.8,5.0,5.8,5.1,5.5,2.9,3.2,3.2,��,3.0,��
2013/09/11,23:30,2.8,5.0,5.8,5.1,5.5,2.9,3.2,3.2,��,2.4,��
2013/09/11,23:40,2.8,5.0,5.8,5.1,5.5,2.9,3.2,3.2,��,2.5,��
2013/09/11,23:50,2.8,5.0,5.8,5.1,5.5,2.9,3.2,3.2,��,2.2,��
